Content
SEND FEEDBACK

Daily
Averages
Monthly
Summary
Russia

PENZA, RUSSIA


Home > Europe > Russia
Elevation: 571 feet     Latitude: 53 08N     Longitude: 045 01E

WEATHER
 
SELECT A DAY
Number of Records: 134,257;   Date Range: 3/24/97 - 10/23/14
 
SHARE

PRINT THIS DATA

[ ← Previous Day ]
WEATHER ALMANAC - FEBRUARY 13, 2013
[ Next Day → ]
[ °C ]   °F
Weather ElementAverageHighLow
Temperature15.3 °F28 °F (4:00 pm)6.8 °F (8:00 am)
Dewpoint8.1 °F16 °F (7:00 pm)1.4 °F (10:00 am)
Humidity72.1 %85 % (1:00 am)41 % (4:00 pm)
Barometer30.49 in30.52 in (1:00 pm)30.45 in (1:00 am)
Wind Speed4.9 mph11.2 mph (11:00 am)
Weather ElementAverage
Visibility6 mi
Wind DirectionENE (71.8 °)

Weather ElementTotal
Precipitation---
Heating Degree Days47.6 (Base 65)
Averaged from 39 records on February 13, 2013
WEATHER CONDITIONS BREAKOUT
WIND DIRECTION BREAKOUT
WEATHER BY HOUR - FEBRUARY 13, 2013
[ °C ]   °F
Local TimeTemperatureDewpointHumidityBarometerVisibilityWind DirectionWind SpeedGust SpeedPrecipitationEventsConditions
1:00 AM15.0 °F8.0 °F64 %30.45 in6.0 miEast (90°)6.7 mphClear
1:00 AM12.2 °F8.6 °F85 %30.45 inESE (110°)6.7 mphClear
4:00 AM12.0 °F7.0 °F72 %30.47 in6.0 miEast (80°)4.5 mphClear
4:00 AM12.2 °F8.6 °F85 %30.45 inEast (100°)6.7 mphClear
4:30 AM12.2 °F8.6 °F85 %30.45 inEast (100°)6.7 mphClear
5:00 AM12.2 °F8.6 °F85 %30.45 inEast (90°)6.7 mphClear
5:30 AM12.2 °F8.6 °F85 %30.45 inEast (80°)6.7 mphClear
6:00 AM10.4 °F6.8 °F85 %30.48 inEast (80°)6.7 mphClear
6:30 AM10.4 °F6.8 °F85 %30.48 inEast (80°)6.7 mphClear
7:00 AM10.4 °F6.8 °F85 %30.48 inEast (80°)6.7 mphClear
7:00 AM10.0 °F7.0 °F81 %30.48 in6.0 miNNE (30°)4.5 mph
7:30 AM10.4 °F6.8 °F85 %30.48 inEast (80°)8.9 mphClear
8:00 AM6.8 °F3.2 °F85 %30.48 inEast (80°)6.7 mphClear
8:30 AM6.8 °F3.2 °F85 %30.48 inENE (60°)4.5 mphClear
9:00 AM6.8 °F3.2 °F85 %30.51 inNE (50°)4.5 mphClear
9:30 AM6.8 °F3.2 °F85 %30.51 inENE (60°)4.5 mphClear
10:00 AM9.0 °F6.0 °F84 %30.51 in6.0 miEast (80°)2.2 mphClear
10:00 AM6.8 °F1.4 °F79 %30.51 inCalmClear
11:00 AM12.2 °F5.0 °F73 %30.51 inESE (110°)11.2 mphClear
12:00 PM14.0 °F6.8 °F73 %30.51 inESE (120°)8.9 mphClear
1:00 PM19.0 °F11.0 °F59 %30.52 in6.0 miEast (100°)2.2 mphClear
1:00 PM15.8 °F6.8 °F68 %30.51 inESE (120°)6.7 mphClear
2:00 PM21.2 °F10.4 °F63 %30.51 inCalmClear
3:00 PM23.0 °F10.4 °F59 %30.51 inCalmClear
4:00 PM23.0 °F8.6 °F54 %30.51 inCalmClear
4:00 PM28.0 °F14.0 °F41 %30.49 in6.0 miESE (110°)2.2 mphClear
5:00 PM24.8 °F10.4 °F54 %30.48 inEast (100°)4.5 mphClear
6:00 PM19.4 °F8.6 °F63 %30.51 inEast (90°)6.7 mphClear
6:30 PM19.4 °F8.6 °F63 %30.51 inEast (80°)6.7 mphClear
7:00 PM15.8 °F5.0 °F62 %30.51 inEast (80°)8.9 mphClear
7:00 PM26.0 °F16.0 °F53 %30.50 in6.0 miEast (80°)2.2 mphClear
7:30 PM15.8 °F5.0 °F62 %30.51 inEast (80°)4.5 mphClear
8:00 PM21.2 °F12.2 °F68 %30.48 inENE (60°)4.5 mphClear
8:30 PM21.2 °F12.2 °F68 %30.48 inCalmClear
9:00 PM19.4 °F10.4 °F68 %30.48 inEast (80°)4.5 mphClear
9:30 PM19.4 °F10.4 °F68 %30.48 inCalmClear
10:00 PM22.0 °F14.0 °F62 %30.51 in6.0 miEast (80°)2.2 mphClear
10:00 PM19.4 °F12.2 °F74 %30.48 inEast (90°)4.5 mphClear
11:00 PM14.0 °F6.8 °F73 %30.51 inEast (90°)8.9 mphClear
Hourly data recorded from UWPP, located miles away from Penza, Russia







STORIES FROM OUR PARTNERS